Location: Carrer del Canonge
(41.4901°N, 2.2931°E)
Time: 04:29:12
(UTC+00:00)

H-2A R/B - Pass Details

Date: 18 September 2020
Orbit: 734 x 836 km, 98.2° (Epoch: 25 October)

Event Time Altitude Azimuth Distance (km) Brightness Sun altitude
Rises 19:11:52 0° 173° (S) 3,151 5.0 -15.1°
Reaches altitude 10° 19:14:08 10° 176° (S) 2,239 4.2 -15.5°
Maximum altitude 19:19:01 65° 259° (W) 821 2.3 -16.4°
Drops below altitude 10° 19:24:02 10° 341° (NNW) 2,299 5.0 -17.3°
Sets 19:26:23 0° 345° (NNW) 3,244 5.7 -17.7°
